TimeEST,TemperatureF,Dew PointF,Humidity,Sea Level PressureIn,VisibilityMPH,Wind Direction,Wind SpeedMPH,Gust SpeedMPH,PrecipitationIn,Events,Conditions,WindDirDegrees,DateUTC
12:53 AM,12.0,1.9,64,30.30,10.0,SSW,5.8,-,N/A,,Scattered Clouds,200,2013-12-13 05:53:00
1:53 AM,12.9,3.0,65,30.30,10.0,South,5.8,-,N/A,,Clear,190,2013-12-13 06:53:00
2:53 AM,10.9,1.9,67,30.31,10.0,South,6.9,-,N/A,,Clear,190,2013-12-13 07:53:00
3:53 AM,10.0,1.9,70,30.30,10.0,South,6.9,-,N/A,,Clear,190,2013-12-13 08:53:00
4:53 AM,12.0,3.0,67,30.27,10.0,South,6.9,-,N/A,,Overcast,180,2013-12-13 09:53:00
5:53 AM,14.0,5.0,67,30.26,10.0,South,9.2,-,N/A,,Mostly Cloudy,180,2013-12-13 10:53:00
6:53 AM,14.0,5.0,67,30.28,10.0,South,6.9,-,N/A,,Partly Cloudy,190,2013-12-13 11:53:00
7:53 AM,16.0,8.1,71,30.28,10.0,SSW,9.2,-,N/A,,Overcast,200,2013-12-13 12:53:00
8:53 AM,16.0,9.0,74,30.29,9.0,South,5.8,-,N/A,,Partly Cloudy,190,2013-12-13 13:53:00
9:53 AM,21.0,12.0,68,30.30,10.0,SW,8.1,-,N/A,,Mostly Cloudy,220,2013-12-13 14:53:00
10:53 AM,25.0,10.9,55,30.30,10.0,WSW,5.8,-,N/A,,Clear,250,2013-12-13 15:53:00
11:53 AM,26.1,14.0,60,30.27,10.0,South,5.8,-,N/A,,Clear,190,2013-12-13 16:53:00
12:53 PM,27.0,14.0,58,30.26,10.0,South,6.9,-,N/A,,Clear,180,2013-12-13 17:53:00
1:53 PM,27.0,15.1,61,30.24,9.0,SSW,8.1,-,N/A,,Clear,200,2013-12-13 18:53:00
2:53 PM,27.0,16.0,63,30.23,8.0,SSW,8.1,-,N/A,,Clear,200,2013-12-13 19:53:00
3:53 PM,28.0,17.1,63,30.23,8.0,SSW,11.5,-,N/A,,Clear,200,2013-12-13 20:53:00
4:53 PM,27.0,18.0,69,30.23,8.0,South,5.8,-,N/A,,Clear,190,2013-12-13 21:53:00
5:53 PM,27.0,18.0,69,30.23,9.0,South,5.8,-,N/A,,Clear,180,2013-12-13 22:53:00
6:53 PM,26.1,18.0,71,30.24,9.0,Calm,Calm,-,N/A,,Clear,0,2013-12-13 23:53:00
7:53 PM,26.1,18.0,71,30.26,8.0,Calm,Calm,-,N/A,,Partly Cloudy,0,2013-12-14 00:53:00
8:53 PM,24.1,18.0,77,30.25,8.0,East,4.6,-,N/A,,Clear,90,2013-12-14 01:53:00
9:53 PM,27.0,19.9,75,30.25,8.0,Calm,Calm,-,N/A,,Overcast,0,2013-12-14 02:53:00
10:53 PM,27.0,19.9,75,30.22,8.0,ESE,4.6,-,N/A,,Overcast,120,2013-12-14 03:53:00
11:53 PM,28.0,21.0,75,30.23,8.0,SSW,4.6,-,N/A,,Overcast,210,2013-12-14 04:53:00